| time (UTC) | temp F | wind direction | speed knots | gust knots | rain 1hr in | rain 24hr in | rain mn in | humidity % | barometer mb |
| 20260506044209 | 52 | 135 | 0.0 | 0.0 | 0.00 | 2.04 | 0.08 | 94 | 5.6 |
| 20260506043215 | 52 | 157 | 0.0 | 0.0 | 0.00 | 2.04 | 0.08 | 94 | 5.5 |
| 20260506042215 | 52 | 225 | 0.0 | 0.0 | 0.00 | 2.04 | 0.08 | 94 | 5.5 |
| 20260506041214 | 52 | 225 | 0.0 | 0.0 | 0.00 | 2.04 | 0.08 | 94 | 5.5 |
| 20260506040214 | 52 | 270 | 0.0 | 0.0 | 0.00 | 2.04 | 0.08 | 94 | 5.4 |
| 20260506034213 | 52 | 202 | 0.0 | 0.0 | 0.00 | 2.04 | 0.08 | 94 | 5.4 |
| 20260506033213 | 52 | 202 | 0.0 | 0.0 | 0.00 | 2.04 | 0.08 | 94 | 5.6 |
| 20260506032212 | 52 | 202 | 0.0 | 0.0 | 0.00 | 2.04 | 0.08 | 94 | 5.7 |
| 20260506031211 | 65 | 360 | 5.2 | 5.2 | 0.00 | 2.04 | 1.95 | 71 | 8.0 |
| 20260506030211 | 52 | 202 | 0.0 | 0.0 | 0.00 | 0.98 | 0.08 | 94 | 5.6 |
| 20260506025215 | 52 | 225 | 0.0 | 0.0 | 0.00 | 0.98 | 0.08 | 94 | 5.8 |
| 20260506024215 | 52 | 337 | 0.0 | 0.0 | 0.00 | 0.98 | 0.08 | 94 | 5.8 |
| 20260506023215 | 52 | 247 | 0.0 | 0.0 | 0.00 | 0.98 | 0.08 | 94 | 5.9 |
| 20260506022214 | 52 | 315 | 0.0 | 0.0 | 0.00 | 0.98 | 0.08 | 94 | 6.0 |
| 20260506021213 | 52 | 22 | 0.0 | 0.0 | 0.00 | 0.98 | 0.08 | 94 | 6.0 |
| 20260506020213 | 52 | 360 | 0.0 | 0.0 | 0.00 | 1.00 | 0.08 | 94 | 6.1 |
| 20260506015213 | 52 | 22 | 0.0 | 0.0 | 0.00 | 1.00 | 0.08 | 94 | 6.0 |
| 20260506014213 | 52 | 67 | 0.0 | 0.0 | 0.00 | 1.00 | 0.08 | 94 | 6.1 |
| 20260506013212 | 52 | 45 | 0.0 | 0.0 | 0.00 | 1.00 | 0.08 | 94 | 6.1 |
| 20260506012212 | 53 | 315 | 0.0 | 0.0 | 0.00 | 1.00 | 0.08 | 94 | 6.2 |
| 20260506011211 | 53 | 225 | 0.0 | 0.0 | 0.00 | 1.00 | 0.08 | 94 | 6.2 |
| 20260506010215 | 53 | 247 | 0.0 | 0.0 | 0.00 | 1.00 | 0.08 | 94 | 6.3 |
| 20260506005215 | 53 | 247 | 0.0 | 0.0 | 0.00 | 1.00 | 0.08 | 94 | 6.3 |
| 20260506004215 | 53 | 247 | 0.0 | 0.0 | 0.00 | 1.00 | 0.08 | 94 | 6.3 |
| 20260506003214 | 53 | 247 | 0.0 | 0.0 | 0.00 | 1.00 | 0.08 | 94 | 6.3 |
| 20260506002214 | 53 | 270 | 0.0 | 0.0 | 0.00 | 1.00 | 0.08 | 93 | 6.2 |
| 20260506001213 | 53 | 225 | 0.0 | 0.0 | 0.02 | 1.00 | 0.08 | 93 | 6.3 |
| 20260506000212 | 53 | 225 | 0.0 | 0.0 | 0.02 | 1.00 | 0.08 | 93 | 6.4 |
| 20260505235212 | 53 | 180 | 0.0 | 0.0 | 0.02 | 1.00 | 0.08 | 93 | 6.5 |
| 20260505232214 | 53 | 135 | 0.0 | 0.0 | 0.04 | 1.00 | 0.08 | 93 | 6.7 |
| 20260505231214 | 54 | 202 | 0.0 | 0.0 | 0.02 | 0.98 | 0.06 | 93 | 6.6 |
| 20260505230213 | 54 | 202 | 0.0 | 0.0 | 0.04 | 0.98 | 0.06 | 93 | 6.9 |
| 20260505225212 | 54 | 202 | 0.0 | 0.0 | 0.06 | 0.98 | 0.06 | 93 | 6.7 |
| 20260505224211 | 54 | 225 | 0.0 | 0.0 | 0.06 | 0.98 | 0.06 | 93 | 6.5 |
| 20260505223215 | 54 | 360 | 0.0 | 0.0 | 0.08 | 0.96 | 0.04 | 93 | 6.6 |
| 20260505222214 | 54 | 225 | 0.0 | 0.0 | 0.12 | 0.96 | 0.04 | 93 | 6.8 |
| 20260505221214 | 54 | 225 | 0.0 | 0.0 | 0.14 | 0.96 | 0.04 | 93 | 6.8 |
| 20260505220213 | 54 | 225 | 0.0 | 0.0 | 0.16 | 0.92 | 0.92 | 92 | 6.8 |
| 20260505214212 | 54 | 247 | 0.0 | 0.0 | 0.20 | 0.92 | 0.92 | 92 | 7.0 |
| 20260505213212 | 55 | 247 | 0.0 | 0.0 | 0.22 | 0.88 | 0.88 | 92 | 7.1 |
| 20260505211211 | 55 | 225 | 0.0 | 0.0 | 0.22 | 0.82 | 0.82 | 93 | 7.2 |
| 20260505210214 | 55 | 225 | 0.0 | 0.0 | 0.24 | 0.77 | 0.77 | 92 | 7.2 |
| 20260505205214 | 55 | 22 | 0.0 | 0.0 | 0.27 | 0.73 | 0.73 | 92 | 7.2 |
| 20260505204214 | 56 | 22 | 0.0 | 0.0 | 0.29 | 0.71 | 0.71 | 92 | 7.1 |
| 20260505203213 | 56 | 360 | 0.0 | 0.0 | 0.33 | 0.65 | 0.65 | 92 | 7.0 |
| 20260505202213 | 56 | 337 | 0.0 | 0.0 | 0.43 | 0.63 | 0.63 | 92 | 6.9 |
| 20260505201212 | 57 | 247 | 0.0 | 0.0 | 0.45 | 0.59 | 0.59 | 92 | 7.1 |
| 20260505200212 | 57 | 202 | 0.0 | 0.0 | 0.41 | 0.53 | 0.53 | 92 | 7.0 |
| 20260505195212 | 57 | 202 | 0.0 | 0.0 | 0.37 | 0.47 | 0.47 | 92 | 7.0 |
| 20260505194211 | 57 | 202 | 0.0 | 0.0 | 0.33 | 0.43 | 0.43 | 92 | 7.1 |
| 20260505193211 | 57 | 112 | 0.0 | 0.0 | 0.24 | 0.33 | 0.33 | 92 | 7.0 |
| 20260505192215 | 57 | 247 | 0.0 | 0.0 | 0.12 | 0.20 | 0.20 | 91 | 7.1 |
| 20260505191214 | 57 | 225 | 0.0 | 0.0 | 0.04 | 0.12 | 0.12 | 91 | 7.1 |
| 20260505190214 | 57 | 225 | 0.0 | 0.0 | 0.04 | 0.12 | 0.12 | 91 | 7.0 |
| 20260505183212 | 58 | 225 | 0.0 | 0.0 | 0.02 | 0.08 | 0.08 | 90 | 6.8 |
| 20260505182211 | 58 | 337 | 0.0 | 0.0 | 0.02 | 0.08 | 0.08 | 90 | 6.8 |
| 20260505181211 | 58 | 337 | 0.0 | 0.0 | 0.02 | 0.08 | 0.08 | 90 | 6.8 |
| 20260505180210 | 59 | 225 | 0.0 | 0.0 | 0.04 | 0.08 | 0.08 | 89 | 6.8 |
| 20260505174215 | 60 | 337 | 0.0 | 0.0 | 0.04 | 0.08 | 0.08 | 88 | 6.8 |
| 20260505173215 | 60 | 360 | 0.0 | 0.0 | 0.02 | 0.06 | 0.06 | 87 | 6.8 |
| 20260505171213 | 61 | 247 | 0.0 | 0.0 | 0.02 | 0.06 | 0.06 | 84 | 6.9 |
| 20260505165213 | 62 | 22 | 7.0 | 7.0 | 0.00 | 0.04 | 0.04 | 78 | 6.8 |
| 20260505164212 | 62 | 22 | 7.0 | 7.0 | 0.00 | 0.04 | 0.04 | 76 | 6.9 |
| 20260505163211 | 63 | 360 | 7.8 | 7.8 | 0.00 | 0.04 | 0.04 | 75 | 7.0 |
| 20260505162213 | 64 | 337 | 5.2 | 5.2 | 0.00 | 0.04 | 0.04 | 75 | 7.0 |
| 20260505160214 | 64 | 360 | 6.1 | 6.1 | 0.00 | 0.04 | 0.04 | 73 | 7.1 |
| 20260505153211 | 66 | 360 | 6.1 | 6.1 | 0.00 | 0.04 | 0.04 | 71 | 7.0 |
| 20260505152211 | 66 | 22 | 0.0 | 0.0 | 0.00 | 0.04 | 0.04 | 71 | 7.1 |
| 20260505151211 | 65 | 22 | 4.3 | 4.3 | 0.00 | 0.04 | 0.04 | 71 | 7.2 |
| 20260505140211 | 66 | 67 | 2.6 | 2.6 | 0.00 | 0.04 | 0.04 | 70 | 7.8 |
| 20260505130212 | 66 | 45 | 2.6 | 2.6 | 0.00 | 0.04 | 0.04 | 71 | 8.3 |
| 20260505124211 | 66 | 45 | 1.7 | 1.7 | 0.00 | 0.04 | 0.04 | 70 | 8.5 |
| 20260505123211 | 66 | 360 | 5.2 | 5.2 | 0.00 | 0.04 | 0.04 | 71 | 8.5 |
| 20260505121210 | 67 | 315 | 2.6 | 2.6 | 0.00 | 0.04 | 0.04 | 70 | 8.8 |
| 20260505120213 | 67 | 112 | 0.9 | 0.9 | 0.00 | 0.04 | 0.04 | 70 | 8.9 |
| 20260505115212 | 67 | 45 | 0.0 | 0.0 | 0.00 | 0.04 | 0.04 | 68 | 8.9 |
| 20260505114212 | 66 | 112 | 0.0 | 0.0 | 0.00 | 0.04 | 0.04 | 68 | 9.1 |